• In Portugal
  • List of Countries
  • For 7 days
  • Water Temperature
  • Satellite Maps
  • Weather Map
  • Weather Widgets
  • user-avatar
    Login

    Hourly Weather Megri

    Today, 21 June, Thursday

    Time Temperature Precipitation Wind Pressure Humidity
    00:00 +16°C° 0.1 mm 2 mps 624 mmHg 64%
    01:00 +16°C° 0.1 mm 2 mps 624 mmHg 64%
    02:00 +16°C° 0.1 mm 2 mps 624 mmHg 64%
    03:00 +15°C° 0 mm 2 mps 623 mmHg 65%
    04:00 +15°C° 0 mm 2 mps 624 mmHg 64%
    05:00 +16°C° 0 mm 2 mps 624 mmHg 62%
    06:00 +16°C° 0 mm 2 mps 624 mmHg 60%
    07:00 +18°C° 0 mm 2 mps 625 mmHg 55%
    08:00 +19°C° 0 mm 2 mps 625 mmHg 49%
    09:00 +21°C° 0 mm 3 mps 626 mmHg 43%
    10:00 +23°C° 0 mm 2 mps 626 mmHg 40%
    11:00 +24°C° 0 mm 2 mps 626 mmHg 37%
    12:00 +25°C° 0 mm 2 mps 626 mmHg 33%
    13:00 +26°C° 0 mm 2 mps 626 mmHg 32%
    14:00 +26°C° 0 mm 2 mps 626 mmHg 30%
    15:00 +27°C° 0 mm 3 mps 625 mmHg 30%
    16:00 +26°C° 0 mm 3 mps 625 mmHg 32%
    17:00 +25°C° 0 mm 3 mps 625 mmHg 34%
    18:00 +25°C° 0 mm 4 mps 625 mmHg 35%
    19:00 +22°C° 0 mm 4 mps 624 mmHg 40%
    20:00 +20°C° 0 mm 3 mps 624 mmHg 44%
    21:00 +18°C° 0 mm 3 mps 624 mmHg 49%
    22:00 +18°C° 0 mm 3 mps 623 mmHg 50%
    23:00 +17°C° 0 mm 3 mps 623 mmHg 51%

    Tomorrow, 22 June, Friday

    Time Temperature Precipitation Wind Pressure Humidity
    00:00 +17°C° 0 mm 3 mps 623 mmHg 53%
    01:00 +16°C° 0 mm 3 mps 623 mmHg 54%
    02:00 +16°C° 0 mm 2 mps 623 mmHg 55%
    03:00 +15°C° 0 mm 2 mps 623 mmHg 57%
    04:00 +16°C° 0 mm 2 mps 623 mmHg 55%
    05:00 +16°C° 0 mm 2 mps 623 mmHg 54%
    06:00 +17°C° 0 mm 2 mps 623 mmHg 53%
    07:00 +19°C° 0 mm 2 mps 623 mmHg 47%
    08:00 +20°C° 0 mm 3 mps 624 mmHg 41%
    09:00 +22°C° 0 mm 3 mps 624 mmHg 35%
    10:00 +24°C° 0 mm 3 mps 624 mmHg 33%
    11:00 +26°C° 0 mm 3 mps 624 mmHg 30%
    12:00 +27°C° 0 mm 3 mps 624 mmHg 27%
    13:00 +27°C° 0 mm 3 mps 624 mmHg 27%
    14:00 +28°C° 0 mm 3 mps 624 mmHg 26%
    15:00 +28°C° 0 mm 3 mps 624 mmHg 25%
    16:00 +27°C° 0 mm 4 mps 623 mmHg 28%
    17:00 +26°C° 0 mm 4 mps 623 mmHg 31%
    18:00 +25°C° 0 mm 4 mps 622 mmHg 33%
    19:00 +23°C° 0 mm 4 mps 622 mmHg 38%
    20:00 +21°C° 0 mm 4 mps 622 mmHg 43%
    21:00 +19°C° 0 mm 3 mps 622 mmHg 48%
    22:00 +18°C° 0 mm 3 mps 622 mmHg 49%
    23:00 +18°C° 0 mm 3 mps 621 mmHg 49%

    Day after tomorrow, 23 June, Saturday

    Time Temperature Precipitation Wind Pressure Humidity
    00:00 +17°C° 0 mm 3 mps 621 mmHg 49%
    01:00 +17°C° 0 mm 3 mps 621 mmHg 49%
    02:00 +16°C° 0 mm 2 mps 621 mmHg 49%
    03:00 +16°C° 0 mm 2 mps 621 mmHg 49%
    04:00 +16°C° 0 mm 2 mps 621 mmHg 47%
    05:00 +17°C° 0 mm 2 mps 622 mmHg 45%
    06:00 +17°C° 0 mm 2 mps 622 mmHg 43%
    07:00 +19°C° 0 mm 2 mps 622 mmHg 38%
    08:00 +21°C° 0 mm 2 mps 623 mmHg 34%
    09:00 +24°C° 0 mm 2 mps 624 mmHg 29%
    10:00 +25°C° 0 mm 2 mps 624 mmHg 28%
    11:00 +26°C° 0 mm 2 mps 624 mmHg 26%
    12:00 +27°C° 0 mm 2 mps 624 mmHg 25%
    13:00 +27°C° 0 mm 2 mps 624 mmHg 24%
    14:00 +28°C° 0 mm 2 mps 624 mmHg 24%
    15:00 +28°C° 0 mm 2 mps 624 mmHg 23%
    16:00 +28°C° 0 mm 2 mps 623 mmHg 24%
    17:00 +27°C° 0 mm 3 mps 623 mmHg 25%
    18:00 +27°C° 0 mm 3 mps 623 mmHg 26%
    19:00 +25°C° 0 mm 3 mps 623 mmHg 30%
    20:00 +22°C° 0 mm 3 mps 622 mmHg 33%
    21:00 +20°C° 0 mm 3 mps 622 mmHg 36%
    22:00 +19°C° 0 mm 3 mps 622 mmHg 37%
    23:00 +19°C° 0 mm 3 mps 622 mmHg 38%

    24 June, Sunday

    Time Temperature Precipitation Wind Pressure Humidity
    00:00 +18°C° 0 mm 2 mps 622 mmHg 38%
    01:00 +18°C° 0 mm 2 mps 622 mmHg 39%
    02:00 +18°C° 0 mm 2 mps 622 mmHg 40%
    03:00 +17°C° 0 mm 2 mps 622 mmHg 41%
    04:00 +18°C° 0 mm 2 mps 622 mmHg 41%
    05:00 +18°C° 0 mm 2 mps 623 mmHg 41%
    06:00 +19°C° 0 mm 2 mps 623 mmHg 40%
    07:00 +21°C° 0 mm 2 mps 624 mmHg 37%
    08:00 +24°C° 0 mm 2 mps 624 mmHg 33%
    09:00 +25°C° 0 mm 2 mps 625 mmHg 29%
    10:00 +27°C° 0 mm 2 mps 625 mmHg 27%
    11:00 +28°C° 0 mm 2 mps 625 mmHg 25%
    12:00 +29°C° 0 mm 2 mps 625 mmHg 23%
    13:00 +30°C° 0 mm 2 mps 625 mmHg 22%
    14:00 +31°C° 0 mm 2 mps 625 mmHg 21%
    15:00 +31°C° 0 mm 2 mps 625 mmHg 20%
    16:00 +30°C° 0 mm 3 mps 625 mmHg 23%
    17:00 +29°C° 0 mm 3 mps 624 mmHg 25%
    18:00 +29°C° 0 mm 4 mps 624 mmHg 28%
    19:00 +27°C° 0 mm 4 mps 624 mmHg 34%
    20:00 +25°C° 0 mm 4 mps 623 mmHg 40%
    21:00 +21°C° 0 mm 4 mps 623 mmHg 45%
    22:00 +21°C° 0 mm 3 mps 623 mmHg 47%
    23:00 +20°C° 0 mm 3 mps 623 mmHg 48%

    25 June, Monday

    Time Temperature Precipitation Wind Pressure Humidity
    00:00 +20°C° 0 mm 3 mps 623 mmHg 49%
    01:00 +19°C° 0 mm 3 mps 623 mmHg 50%
    02:00 +19°C° 0 mm 3 mps 623 mmHg 51%
    03:00 +18°C° 0 mm 3 mps 623 mmHg 53%
    04:00 +19°C° 0 mm 3 mps 623 mmHg 51%
    05:00 +19°C° 0 mm 3 mps 623 mmHg 50%
    06:00 +20°C° 0 mm 3 mps 624 mmHg 49%
    07:00 +21°C° 0 mm 3 mps 625 mmHg 44%
    08:00 +24°C° 0 mm 3 mps 625 mmHg 39%
    09:00 +26°C° 0 mm 3 mps 626 mmHg 34%
    10:00 +27°C° 0 mm 3 mps 626 mmHg 31%
    11:00 +29°C° 0 mm 3 mps 626 mmHg 29%
    12:00 +30°C° 0 mm 3 mps 626 mmHg 26%
    13:00 +30°C° 0 mm 3 mps 626 mmHg 26%
    14:00 +31°C° 0 mm 3 mps 626 mmHg 25%
    15:00 +32°C° 0 mm 4 mps 626 mmHg 24%
    16:00 +30°C° 0 mm 4 mps 626 mmHg 27%
    17:00 +29°C° 0 mm 4 mps 625 mmHg 29%
    18:00 +28°C° 0 mm 5 mps 625 mmHg 31%
    19:00 +27°C° 0 mm 4 mps 625 mmHg 35%
    20:00 +25°C° 0 mm 4 mps 625 mmHg 39%
    21:00 +22°C° 0 mm 4 mps 624 mmHg 43%
    22:00 +21°C° 0 mm 3 mps 624 mmHg 44%
    23:00 +20°C° 0 mm 3 mps 624 mmHg 45%

    26 June, Tuesday

    Time Temperature Precipitation Wind Pressure Humidity
    00:00 +20°C° 0 mm 3 mps 624 mmHg 47%
    01:00 +19°C° 0 mm 3 mps 623 mmHg 47%
    02:00 +19°C° 0 mm 3 mps 623 mmHg 48%
    03:00 +19°C° 0 mm 2 mps 623 mmHg 48%
    04:00 +19°C° 0 mm 2 mps 623 mmHg 47%
    05:00 +20°C° 0 mm 2 mps 624 mmHg 46%
    06:00 +20°C° 0 mm 2 mps 624 mmHg 44%
    07:00 +22°C° 0 mm 3 mps 625 mmHg 40%
    08:00 +25°C° 0 mm 3 mps 625 mmHg 35%
    09:00 +27°C° 0 mm 3 mps 626 mmHg 30%
    10:00 +28°C° 0 mm 3 mps 626 mmHg 28%
    11:00 +29°C° 0 mm 3 mps 626 mmHg 25%
    12:00 +31°C° 0 mm 3 mps 626 mmHg 23%
    13:00 +31°C° 0 mm 3 mps 625 mmHg 22%
    14:00 +33°C° 0 mm 3 mps 625 mmHg 21%
    15:00 +34°C° 0 mm 3 mps 625 mmHg 20%
    16:00 +33°C° 0 mm 3 mps 625 mmHg 22%
    17:00 +31°C° 0 mm 3 mps 624 mmHg 24%
    18:00 +30°C° 0 mm 3 mps 624 mmHg 26%
    19:00 +28°C° 0 mm 3 mps 624 mmHg 32%
    20:00 +26°C° 0 mm 3 mps 623 mmHg 37%
    21:00 +24°C° 0 mm 3 mps 623 mmHg 42%
    22:00 +22°C° 0 mm 3 mps 623 mmHg 43%
    23:00 +22°C° 0 mm 3 mps 623 mmHg 44%
    Show more